EW3084 Weather Reports


Display with metric or nautical units.
time (UTC)temp
F
wind
direction
speed
MPH
gust
MPH
rain 1hr
in
rain 24hr
in
rain mn
in
humidity
%
barometer
mb
20260903075403 56 265 7.0 15.0 0.00 0.02 0.00 63
20260903074503 55 281 6.0 13.0 0.00 0.02 0.00 64
20260903073603 55 292 6.0 14.0 0.00 0.02 0.00 65
20260903072703 54 274 7.0 17.0 0.00 0.02 0.00 68
20260903071803 54 297 4.0 17.0 0.00 0.02 0.00 71
20260903070903 54 276 8.0 18.0 0.00 0.02 0.00 71
20260903070003 53 262 9.0 18.0 0.00 0.02 0.00 72
20260903065403 53 269 7.0 17.0 0.00 0.02 0.00 73
20260903064503 53 267 6.0 14.0 0.00 0.02 0.00 75
20260903063603 52 278 7.0 17.0 0.00 0.02 0.00 76
20260903062703 52 267 6.0 17.0 0.00 0.02 0.00 77
20260903061803 52 275 5.0 16.0 0.00 0.02 0.00 78
20260903060903 51 271 5.0 16.0 0.00 0.02 0.00 79
20260903060003 51 273 4.0 12.0 0.00 0.02 0.00 82
20260903055403 51 266 4.0 12.0 0.00 0.02 0.00 83
20260903054503 50 261 2.0 9.0 0.00 0.02 0.00 85
20260903053603 50 266 2.0 8.0 0.00 0.02 0.00 86
20260903052703 50 269 3.0 11.0 0.00 0.02 0.00 88
20260903051803 50 263 2.0 10.0 0.00 0.02 0.00 90
20260903050903 49 263 2.0 10.0 0.00 0.02 0.00 92
20260903050003 49 274 1.0 9.0 0.00 0.02 0.00 99
20260903045403 49 294 0.0 4.0 0.00 0.02 0.00 100
20260903044503 49 284 0.0 3.0 0.00 0.02 0.00 100
20260903043603 49 269 1.0 7.0 0.00 0.02 0.00 100
20260903042703 50 279 1.0 4.0 0.00 0.02 0.00 100
20260903042017 50 273 2.0 9.0 0.00 0.02 0.00 100
20260903040903 50 265 1.0 7.0 0.00 0.02 0.00 100
20260903040003 50 269 2.0 7.0 0.00 0.02 0.00 100
20260903035403 50 269 1.0 7.0 0.00 0.02 0.00 100
20260903034503 51 266 1.0 6.0 0.00 0.02 0.00 100
20260903033818 51 271 3.0 6.0 0.00 0.02 0.00 100
20260903032917 51 271 2.0 7.0 0.00 0.02 0.00 100
20260903031803 52 272 2.0 7.0 0.00 0.02 0.00 100
20260903031115 51 270 1.0 7.0 0.00 0.02 0.00 100
20260903030003 52 275 1.0 3.0 0.00 0.02 0.00 100
20260903025403 52 269 1.0 4.0 0.00 0.02 0.00 100
20260903024503 52 264 0.0 3.0 0.00 0.02 0.00 100
20260903023603 52 274 2.0 5.0 0.00 0.02 0.00 100
20260903022917 52 277 1.0 4.0 0.00 0.02 0.00 100
20260903021803 52 261 1.0 4.0 0.00 0.02 0.00 100
20260903020903 52 275 1.0 4.0 0.00 0.02 0.00 100
20260903020219 52 274 1.0 9.0 0.00 0.02 0.00 100
20260903015403 52 274 2.0 7.0 0.00 0.02 0.00 100
20260903014503 52 280 1.0 4.0 0.00 0.02 0.00 100
20260903013603 52 265 1.0 7.0 0.00 0.02 0.00 100
20260903012703 52 272 0.0 3.0 0.00 0.02 0.00 100
20260903011803 53 244 0.0 2.0 0.00 0.02 0.00 100
20260903010903 53 271 0.0 4.0 0.00 0.02 0.00 100
20260903010003 53 263 0.0 2.0 0.00 0.02 0.00 100
20260903005403 53 274 0.0 5.0 0.00 0.02 0.00 100
20260903004717 53 274 0.0 5.0 0.00 0.02 0.00 99
20260903003603 53 282 1.0 5.0 0.00 0.02 0.00 98
20260903002703 53 248 0.0 4.0 0.00 0.02 0.00 96
20260903001803 53 274 1.0 5.0 0.00 0.02 0.00 94
20260903000903 53 283 2.0 5.0 0.00 0.02 0.00 93
20260903000003 54 279 2.0 9.0 0.00 0.02 0.00 92
20260902235403 54 280 2.0 10.0 0.00 0.02 0.00 91
20260902234503 54 276 3.0 10.0 0.00 0.02 0.00 91
20260902233816 54 269 2.0 10.0 0.00 0.02 0.00 91
20260902232703 54 279 3.0 9.0 0.00 0.02 0.00 90
20260902231803 54 272 3.0 10.0 0.00 0.02 0.00 90
20260902231118 54 276 3.0 10.0 0.00 0.02 0.00 90
20260902230003 54 274 3.0 11.0 0.00 0.02 0.00 90
20260902225403 54 277 3.0 9.0 0.00 0.02 0.00 90
20260902224503 54 273 3.0 10.0 0.00 0.02 0.00 91
20260902223603 53 273 2.0 6.0 0.00 0.02 0.00 91
20260902222703 53 264 0.0 5.0 0.00 0.02 0.00 90
20260902221803 54 245 0.0 3.0 0.00 0.02 0.00 89
20260902220903 54 269 1.0 7.0 0.00 0.02 0.00 88
20260902220003 54 275 2.0 6.0 0.00 0.02 0.00 87
20260902215403 54 270 3.0 5.0 0.00 0.02 0.02 86
20260902214503 54 270 2.0 6.0 0.00 0.02 0.02 85
20260902213815 55 272 4.0 12.0 0.00 0.02 0.02 85
20260902212703 55 269 4.0 10.0 0.00 0.02 0.02 85
20260902212018 55 275 4.0 13.0 0.00 0.02 0.02 85
20260902210903 54 273 2.0 8.0 0.00 0.02 0.02 84
20260902210217 54 273 1.0 4.0 0.00 0.02 0.02 84
20260902205403 55 273 2.0 5.0 0.00 0.02 0.02 82
20260902204503 55 281 2.0 10.0 0.00 0.02 0.02 82
20260902203603 55 280 1.0 10.0 0.00 0.02 0.02 81
20260902202703 55 278 1.0 5.0 0.00 0.02 0.02 81
20260902201803 55 267 1.0 6.0 0.00 0.02 0.02 80
20260902200903 56 276 1.0 5.0 0.00 0.02 0.02 79
20260902200003 56 278 1.0 5.0 0.00 0.02 0.02 78
20260902195616 56 277 2.0 5.0 0.00 0.02 0.02 78
20260902194503 56 272 1.0 6.0 0.00 0.02 0.02 77
20260902193819 56 270 1.0 6.0 0.00 0.02 0.02 76
20260902192918 57 272 3.0 7.0 0.00 0.02 0.02 75
20260902191803 57 270 1.0 6.0 0.00 0.02 0.02 74
20260902190903 57 274 1.0 6.0 0.00 0.02 0.02 74
20260902190003 57 265 3.0 9.0 0.00 0.02 0.02 73
20260902185615 58 268 3.0 9.0 0.00 0.02 0.02 73
20260902184503 58 280 4.0 12.0 0.00 0.02 0.02 72
20260902183603 58 267 5.0 12.0 0.00 0.02 0.02 71
20260902182703 58 276 5.0 11.0 0.00 0.02 0.02 71
20260902181803 59 276 4.0 10.0 0.00 0.02 0.02 70
20260902180903 59 273 5.0 13.0 0.00 0.02 0.02 69
20260902180005 59 273 3.0 11.0 0.00 0.02 0.02 69
20260902175403 59 275 5.0 11.0 0.00 0.02 0.02 68
20260902174503 60 267 6.0 12.0 0.00 0.02 0.02 67
20260902173818 60 267 7.0 14.0 0.00 0.02 0.02 66
20260902172703 60 277 5.0 10.0 0.00 0.02 0.02 65
20260902171803 61 272 6.0 14.0 0.00 0.02 0.02 64
20260902170903 61 274 6.0 15.0 0.00 0.02 0.02 62
20260902170003 62 272 5.0 13.0 0.00 0.02 0.02 60
20260902165403 62 273 6.0 13.0 0.00 0.02 0.02 60
20260902164503 62 274 8.0 17.0 0.00 0.02 0.02 59
20260902163603 63 274 8.0 19.0 0.00 0.02 0.02 58
20260902162703 63 280 7.0 15.0 0.00 0.02 0.02 58
20260902161803 64 278 6.0 18.0 0.00 0.02 0.02 56
20260902160903 64 268 7.0 21.0 0.00 0.02 0.02 56
20260902160003 64 274 9.0 18.0 0.00 0.02 0.02 55
20260902155403 64 276 9.0 24.0 0.00 0.02 0.02 56
20260902154503 64 276 7.0 24.0 0.00 0.02 0.02 55
20260902153603 64 269 11.0 23.0 0.00 0.02 0.02 54
20260902152703 65 274 8.0 18.0 0.00 0.02 0.02 52
20260902151803 65 271 9.0 19.0 0.00 0.02 0.02 53
20260902150903 65 275 10.0 22.0 0.00 0.02 0.02 52
20260902150003 65 274 10.0 20.0 0.00 0.02 0.02 52
20260902145403 65 271 10.0 21.0 0.00 0.02 0.02 52
20260902144717 65 267 7.0 19.0 0.00 0.02 0.02 51
20260902143603 65 274 10.0 24.0 0.00 0.02 0.02 52
20260902142705 65 276 9.0 20.0 0.00 0.02 0.02 53
20260902141803 65 271 10.0 20.0 0.00 0.02 0.02 53
20260902140903 65 275 9.0 18.0 0.00 0.02 0.02 52
20260902140003 65 273 8.0 17.0 0.00 0.02 0.02 53
20260902135403 65 272 8.0 15.0 0.00 0.02 0.02 52
20260902134503 65 273 7.0 15.0 0.00 0.02 0.02 52
20260902133603 65 271 10.0 25.0 0.00 0.02 0.02 51
20260902132916 65 271 8.0 25.0 0.00 0.02 0.02 49
20260902131803 65 277 9.0 18.0 0.00 0.02 0.02 52
20260902130903 65 270 10.0 24.0 0.00 0.02 0.02 51
20260902130003 65 267 10.0 25.0 0.00 0.02 0.02 50
20260902125403 65 259 9.0 20.0 0.00 0.02 0.02 53
20260902124503 65 269 10.0 30.0 0.00 0.02 0.02 53
20260902123603 65 276 9.0 18.0 0.00 0.02 0.02 55
20260902122703 64 275 10.0 21.0 0.00 0.02 0.02 54
20260902121803 65 277 10.0 21.0 0.00 0.02 0.02 54
20260902120903 64 274 12.0 22.0 0.00 0.02 0.02 53
20260902120003 65 280 8.0 19.0 0.00 0.02 0.02 53
20260902115403 65 274 8.0 18.0 0.00 0.02 0.02 53
20260902114503 65 269 7.0 17.0 0.00 0.02 0.02 51
20260902113603 64 273 10.0 22.0 0.00 0.02 0.02 54
20260902112703 64 270 11.0 21.0 0.00 0.02 0.02 57
20260902111803 65 270 8.0 20.0 0.00 0.02 0.02 58
20260902110903 65 276 9.0 22.0 0.00 0.02 0.02 58
20260902110004 65 279 10.0 21.0 0.00 0.02 0.02 61
20260902105403 65 280 11.0 21.0 0.00 0.02 0.02 62
20260902104716 64 270 11.0 22.0 0.00 0.02 0.02 63
20260902103603 64 273 11.0 26.0 0.00 0.02 0.02 64
20260902102703 65 268 8.0 17.0 0.00 0.02 0.02 65
20260902101803 65 268 8.0 18.0 0.00 0.02 0.02 67
20260902100903 64 272 8.0 17.0 0.00 0.02 0.02 70
20260902100003 63 277 9.0 22.0 0.00 0.02 0.02 73
20260902095403 62 275 9.0 20.0 0.00 0.02 0.02 74
20260902094503 62 272 10.0 20.0 0.01 0.02 0.02 80
20260902093603 62 274 6.0 20.0 0.02 0.02 0.02 87
20260902092703 62 274 5.0 10.0 0.02 0.02 0.02 93
20260902091803 61 273 6.0 14.0 0.02 0.02 0.02 95
20260902090903 61 273 5.0 11.0 0.02 0.02 0.02 99
20260902090003 60 276 6.0 14.0 0.02 0.02 0.02 100
20260902085403 60 273 6.0 14.0 0.02 0.02 0.02 100
20260902084503 60 270 6.0 14.0 0.01 0.01 0.01 100
20260902083819 60 269 7.0 15.0 0.00 0.00 0.00 97
20260902082703 61 269 6.0 18.0 0.00 0.00 0.00 93
20260902081803 61 280 5.0 18.0 0.00 0.00 0.00 94
20260902081116 60 279 4.0 18.0 0.00 0.00 0.00 97
20260902080003 60 257 3.0 11.0 0.00 0.00 0.00 97